Kearney, NE

6:23 PM CDT on April 21, 2018 (GMT -0500)
Kearney Municipal

Weather History for KEAR - February, 2014

Change the Weather History Date:

Monday, February 10, 2014

  Actual Average Record
Temperature  
Mean Temperature 10 °F 27 °F  
Max Temperature 12 °F 38 °F 73 °F (1999)
Min Temperature 7 °F 15 °F -16 °F (1933)
Degree Days  
Heating Degree Days 55 38  
Month to date heating degree days 389  
Since 1 July heating degree days 4283  
Cooling Degree Days 0 0  
Month to date cooling degree days 0  
Year to date cooling degree days 0  
Moisture  
Dew Point 4 °F    
Average Humidity 73    
Maximum Humidity 80    
Minimum Humidity 66    
Precipitation  
Precipitation 0.00 in - 0.86 in (1960)
Sea Level Pressure  
Sea Level Pressure 30.34 in    
Wind  
Wind Speed 7 mph (SE)    
Max Wind Speed 12 mph    
Max Gust Speed -    
Visibility 10 miles    
Events      
T = Trace of Precipitation, MM = Missing Value Source: NWS Daily Summary

Daily Weather History Graph

Daily Weather History Graph

Search for Another Location

Airport or City:

Astronomy

Feb. 10, 2014 Rise Set
Actual Time 7:36 AM CST 6:04 PM CST
Civil Twilight 7:07 AM CST 6:33 PM CST
Nautical Twilight 6:35 AM CST 7:05 PM CST
Astronomical Twilight 6:03 AM CST 7:37 PM CST
Moon 2:34 PM CST (2/10) 4:31 AM CST (2/10)
Length of Visible Light 11h 25m
Length of Day
10h 28m
Waxing Gibbous, 85% of the Moon is Illuminated
Feb 10
Waxing Gibbous
Feb 14
Full
Feb 22
Last Quarter
Mar 1
New
Mar 8
First Quarter

Hourly Weather History & Observations

Time (CST) Temp. Windchill Dew Point Humidity Pressure Visibility Wind Dir Wind Speed Gust Speed Precip Events Conditions
12:15 AM 10.4 °F -2.4 °F 3.2 °F 73% 30.36 in 10.0 mi NE 9.2 mph - N/A   Overcast
12:35 AM 8.6 °F -3.7 °F 1.4 °F 73% 30.37 in 10.0 mi NE 8.1 mph - N/A   Overcast
12:55 AM 8.6 °F -1.3 °F 1.4 °F 73% 30.38 in 10.0 mi NE 5.8 mph - N/A   Overcast
1:15 AM 8.6 °F -3.7 °F 1.4 °F 73% 30.36 in 10.0 mi NE 8.1 mph - N/A   Overcast
1:35 AM 8.6 °F -1.3 °F 1.4 °F 73% 30.37 in 10.0 mi NE 5.8 mph - N/A   Overcast
1:55 AM 8.6 °F -1.3 °F 1.4 °F 73% 30.37 in 10.0 mi NE 5.8 mph - N/A   Overcast
2:15 AM 8.6 °F -2.6 °F 1.4 °F 73% 30.37 in 10.0 mi NE 6.9 mph - N/A   Overcast
2:35 AM 8.6 °F -1.3 °F 1.4 °F 73% 30.37 in 10.0 mi NE 5.8 mph - N/A   Overcast
2:55 AM 8.6 °F -1.3 °F 1.4 °F 73% 30.36 in 10.0 mi NE 5.8 mph - N/A   Overcast
3:15 AM 8.6 °F 2.0 °F 1.4 °F 73% 30.37 in 10.0 mi ENE 3.5 mph - N/A   Overcast
3:35 AM 8.6 °F -1.3 °F 1.4 °F 73% 30.37 in 10.0 mi East 5.8 mph - N/A   Overcast
3:55 AM 8.6 °F -1.3 °F 1.4 °F 73% 30.36 in 10.0 mi East 5.8 mph - N/A   Overcast
4:15 AM 8.6 °F -1.3 °F 1.4 °F 73% 30.36 in 10.0 mi East 5.8 mph - N/A   Overcast
4:35 AM 8.6 °F -1.3 °F 1.4 °F 73% 30.35 in 10.0 mi East 5.8 mph - N/A   Overcast
4:55 AM 8.6 °F -2.6 °F 1.4 °F 73% 30.35 in 10.0 mi East 6.9 mph - N/A   Overcast
5:15 AM 8.6 °F -1.3 °F 1.4 °F 73% 30.36 in 10.0 mi East 5.8 mph - N/A   Overcast
5:35 AM 8.6 °F -2.6 °F 1.4 °F 73% 30.35 in 10.0 mi East 6.9 mph - N/A   Overcast
5:55 AM 8.6 °F 0.1 °F 1.4 °F 73% 30.37 in 10.0 mi East 4.6 mph - N/A   Overcast
6:15 AM 8.6 °F -1.3 °F 1.4 °F 73% 30.36 in 10.0 mi East 5.8 mph - N/A   Overcast
6:35 AM 8.6 °F -1.3 °F 1.4 °F 73% 30.36 in 10.0 mi East 5.8 mph - N/A   Overcast
6:55 AM 8.6 °F -2.6 °F 1.4 °F 73% 30.36 in 10.0 mi East 6.9 mph - N/A   Overcast
7:15 AM 8.6 °F -2.6 °F 1.4 °F 73% 30.36 in 10.0 mi East 6.9 mph - N/A   Overcast
7:35 AM 8.6 °F -2.6 °F 1.4 °F 73% 30.36 in 10.0 mi East 6.9 mph - N/A   Overcast
7:55 AM 6.8 °F -4.8 °F 1.4 °F 79% 30.37 in 10.0 mi East 6.9 mph - N/A   Overcast
8:15 AM 6.8 °F -4.8 °F 1.4 °F 79% 30.37 in 10.0 mi East 6.9 mph - N/A   Overcast
8:35 AM 8.6 °F -2.6 °F 1.4 °F 73% 30.38 in 10.0 mi East 6.9 mph - N/A   Overcast
8:55 AM 8.6 °F 0.1 °F 1.4 °F 73% 30.38 in 10.0 mi ESE 4.6 mph - N/A   Overcast
9:15 AM 8.6 °F 0.1 °F 1.4 °F 73% 30.38 in 10.0 mi SE 4.6 mph - N/A   Overcast
9:35 AM 8.6 °F -2.6 °F 1.4 °F 73% 30.38 in 10.0 mi SSE 6.9 mph - N/A   Overcast
9:55 AM 8.6 °F -3.7 °F 1.4 °F 73% 30.38 in 10.0 mi SSE 8.1 mph - N/A   Overcast
10:15 AM 8.6 °F -3.7 °F 1.4 °F 73% 30.37 in 10.0 mi SE 8.1 mph - N/A   Overcast
10:35 AM 8.6 °F -3.7 °F 3.2 °F 79% 30.37 in 10.0 mi SSE 8.1 mph - N/A   Overcast
10:55 AM 8.6 °F -2.6 °F 1.4 °F 73% 30.36 in 10.0 mi SSE 6.9 mph - N/A   Overcast
11:15 AM 10.4 °F -1.5 °F 3.2 °F 73% 30.34 in 10.0 mi SE 8.1 mph - N/A   Overcast
11:35 AM 10.4 °F -1.5 °F 3.2 °F 73% 30.34 in 10.0 mi SE 8.1 mph - N/A   Overcast
11:55 AM 10.4 °F -2.4 °F 3.2 °F 73% 30.33 in 10.0 mi SE 9.2 mph - N/A   Overcast
12:15 PM 10.4 °F -0.4 °F 3.2 °F 73% 30.35 in 10.0 mi South 6.9 mph - N/A   Overcast
12:35 PM 10.4 °F -1.5 °F 3.2 °F 73% 30.34 in 10.0 mi South 8.1 mph - N/A   Overcast
12:55 PM 10.4 °F 0.8 °F 3.2 °F 73% 30.34 in 10.0 mi SSE 5.8 mph - N/A   Overcast
1:15 PM 10.4 °F 4.0 °F 3.2 °F 73% 30.33 in 10.0 mi South 3.5 mph - N/A   Overcast
1:35 PM 10.4 °F 2.2 °F 3.2 °F 73% 30.32 in 10.0 mi SSE 4.6 mph - N/A   Overcast
1:55 PM 10.4 °F 2.2 °F 3.2 °F 73% 30.32 in 10.0 mi SE 4.6 mph - N/A   Overcast
2:15 PM 12.2 °F 2.9 °F 5.0 °F 73% 30.31 in 10.0 mi SE 5.8 mph - N/A   Overcast
2:35 PM 12.2 °F 4.3 °F 3.2 °F 67% 30.31 in 10.0 mi SSE 4.6 mph - N/A   Overcast
2:55 PM 12.2 °F 1.7 °F 3.2 °F 67% 30.30 in 10.0 mi South 6.9 mph - N/A   Overcast
3:15 PM 12.2 °F -0.2 °F 5.0 °F 73% 30.30 in 10.0 mi SSE 9.2 mph - N/A   Mostly Cloudy
3:35 PM 12.2 °F 0.7 °F 5.0 °F 73% 30.31 in 10.0 mi SSE 8.1 mph - N/A   Mostly Cloudy
3:55 PM 12.2 °F 0.7 °F 5.0 °F 73% 30.31 in 10.0 mi SSE 8.1 mph - N/A   Overcast
4:15 PM 12.2 °F 1.7 °F 3.2 °F 67% 30.31 in 10.0 mi SSE 6.9 mph - N/A   Overcast
4:35 PM 12.2 °F 0.7 °F 5.0 °F 73% 30.32 in 10.0 mi SSE 8.1 mph - N/A   Overcast
4:55 PM 12.2 °F 1.7 °F 6.8 °F 79% 30.32 in 10.0 mi SSE 6.9 mph - N/A   Overcast
5:15 PM 12.2 °F 0.7 °F 6.8 °F 79% 30.33 in 10.0 mi SSE 8.1 mph - N/A   Overcast
5:35 PM 12.2 °F 2.9 °F 6.8 °F 79% 30.33 in 10.0 mi SSE 5.8 mph - N/A   Overcast
5:55 PM 12.2 °F 2.9 °F 5.0 °F 73% 30.33 in 10.0 mi SSE 5.8 mph - N/A   Overcast
6:15 PM 12.2 °F 1.7 °F 6.8 °F 79% 30.34 in 10.0 mi SE 6.9 mph - N/A   Overcast
6:35 PM 12.2 °F 1.7 °F 6.8 °F 79% 30.34 in 10.0 mi SE 6.9 mph - N/A   Overcast
6:55 PM 12.2 °F 1.7 °F 6.8 °F 79% 30.34 in 10.0 mi SE 6.9 mph - N/A   Overcast
7:15 PM 12.2 °F 1.7 °F 6.8 °F 79% 30.34 in 10.0 mi SSE 6.9 mph - N/A   Overcast
7:35 PM 12.2 °F 1.7 °F 6.8 °F 79% 30.35 in 10.0 mi SSE 6.9 mph - N/A   Overcast
7:55 PM 12.2 °F 0.7 °F 6.8 °F 79% 30.34 in 10.0 mi SE 8.1 mph - N/A   Overcast
8:15 PM 12.2 °F 0.7 °F 6.8 °F 79% 30.34 in 10.0 mi SE 8.1 mph - N/A   Overcast
8:35 PM 12.2 °F -0.2 °F 6.8 °F 79% 30.33 in 10.0 mi SE 9.2 mph - N/A   Overcast
8:55 PM 12.2 °F -1.0 °F 6.8 °F 79% 30.33 in 10.0 mi SE 10.4 mph - N/A   Overcast
9:15 PM 12.2 °F -0.2 °F 6.8 °F 79% 30.33 in 10.0 mi SE 9.2 mph - N/A   Overcast
9:35 PM 12.2 °F 0.7 °F 6.8 °F 79% 30.33 in 10.0 mi SSE 8.1 mph - N/A   Overcast
9:55 PM 12.2 °F -1.0 °F 6.8 °F 79% 30.32 in 10.0 mi SSE 10.4 mph - N/A   Overcast
10:15 PM 12.2 °F 0.7 °F 8.6 °F 85% 30.32 in 10.0 mi SSE 8.1 mph - N/A   Overcast
10:35 PM 12.2 °F 0.7 °F 8.6 °F 85% 30.32 in 10.0 mi SSE 8.1 mph - N/A   Overcast
10:55 PM 12.2 °F -1.8 °F 6.8 °F 79% 30.30 in 10.0 mi South 11.5 mph - N/A   Overcast
11:15 PM 12.2 °F -0.2 °F 8.6 °F 85% 30.30 in 10.0 mi SSE 9.2 mph - N/A   Overcast
11:35 PM 12.2 °F 2.9 °F 8.6 °F 85% 30.30 in 10.0 mi SSE 5.8 mph - N/A   Overcast
11:55 PM 12.2 °F 0.7 °F 8.6 °F 85% 30.32 in 10.0 mi SSW 8.1 mph - N/A   Overcast